Previsão horária em Abegondo

Hoje, 12 Abril, Segunda-feira

Tempo Temperatura Precipitação Vento Pressão Humidade
00:00 +4°C° 0 mm 4 m/s 751 mmHg 70%
01:00 +3°C° 0 mm 4 m/s 751 mmHg 72%
02:00 +3°C° 0 mm 3 m/s 751 mmHg 73%
03:00 +3°C° 0 mm 3 m/s 751 mmHg 76%
04:00 +2°C° 0 mm 3 m/s 751 mmHg 79%
05:00 +3°C° 0 mm 2 m/s 750 mmHg 80%
06:00 +5°C° 0 mm 2 m/s 750 mmHg 71%
07:00 +8°C° 0 mm 2 m/s 750 mmHg 62%
08:00 +10°C° 0 mm 2 m/s 750 mmHg 53%
09:00 +13°C° 0 mm 2 m/s 750 mmHg 48%
10:00 +15°C° 0 mm 2 m/s 750 mmHg 42%
11:00 +18°C° 0 mm 2 m/s 750 mmHg 36%
12:00 +18°C° 0 mm 2 m/s 749 mmHg 35%
13:00 +19°C° 0 mm 2 m/s 749 mmHg 34%
14:00 +19°C° 0 mm 2 m/s 749 mmHg 33%
15:00 +18°C° 0 mm 2 m/s 749 mmHg 42%
16:00 +16°C° 0 mm 2 m/s 749 mmHg 51%
17:00 +15°C° 0 mm 1 m/s 749 mmHg 59%
18:00 +13°C° 0 mm 1 m/s 749 mmHg 64%
19:00 +12°C° 0 mm 2 m/s 749 mmHg 68%
20:00 +9°C° 0 mm 2 m/s 750 mmHg 72%
21:00 +9°C° 0 mm 2 m/s 750 mmHg 73%
22:00 +9°C° 0 mm 2 m/s 750 mmHg 73%
23:00 +8°C° 0 mm 2 m/s 749 mmHg 74%

Amanhã, 13 Abril, Terça-feira

Tempo Temperatura Precipitação Vento Pressão Humidade
00:00 +8°C° 0 mm 2 m/s 749 mmHg 73%
01:00 +10°C° 0 mm 1 m/s 749 mmHg 72%
02:00 +10°C° 0 mm 1 m/s 748 mmHg 71%
03:00 +10°C° 0.1 mm 1 m/s 748 mmHg 72%
04:00 +10°C° 0.1 mm 1 m/s 748 mmHg 73%
05:00 +10°C° 0.1 mm 1 m/s 748 mmHg 75%
06:00 +11°C° 0.1 mm 1 m/s 748 mmHg 75%
07:00 +11°C° 0.1 mm 1 m/s 749 mmHg 75%
08:00 +11°C° 0.1 mm 1 m/s 749 mmHg 75%
09:00 +12°C° 0 mm 1 m/s 749 mmHg 70%
10:00 +13°C° 0 mm 1 m/s 748 mmHg 65%
11:00 +15°C° 0 mm 1 m/s 748 mmHg 59%
12:00 +15°C° 0.1 mm 1 m/s 748 mmHg 62%
13:00 +15°C° 0.1 mm 1 m/s 748 mmHg 64%
14:00 +16°C° 0.1 mm 1 m/s 747 mmHg 67%
15:00 +15°C° 0.1 mm 1 m/s 747 mmHg 72%
16:00 +14°C° 0.1 mm 1 m/s 747 mmHg 77%
17:00 +14°C° 0.1 mm 1 m/s 747 mmHg 83%
18:00 +13°C° 0 mm 1 m/s 748 mmHg 84%
19:00 +13°C° 0 mm 1 m/s 748 mmHg 85%
20:00 +12°C° 0 mm 1 m/s 748 mmHg 86%
21:00 +12°C° 0 mm 1 m/s 748 mmHg 85%
22:00 +12°C° 0 mm 1 m/s 747 mmHg 84%
23:00 +12°C° 0 mm 1 m/s 747 mmHg 84%

Depois de amanhã, 14 Abril, Quarta-feira

Tempo Temperatura Precipitação Vento Pressão Humidade
00:00 +12°C° 0 mm 1 m/s 747 mmHg 84%
01:00 +12°C° 0 mm 1 m/s 746 mmHg 85%
02:00 +11°C° 0 mm 1 m/s 746 mmHg 85%
03:00 +11°C° 0 mm 1 m/s 746 mmHg 87%
04:00 +10°C° 0 mm 1 m/s 746 mmHg 90%
05:00 +10°C° 0 mm 1 m/s 746 mmHg 92%
06:00 +12°C° 0 mm 1 m/s 746 mmHg 81%
07:00 +15°C° 0 mm 1 m/s 745 mmHg 69%
08:00 +19°C° 0 mm 1 m/s 745 mmHg 58%
09:00 +19°C° 0 mm 2 m/s 745 mmHg 53%
10:00 +21°C° 0 mm 2 m/s 745 mmHg 48%
11:00 +24°C° 0 mm 2 m/s 744 mmHg 43%
12:00 +24°C° 0 mm 3 m/s 744 mmHg 44%
13:00 +24°C° 0 mm 3 m/s 743 mmHg 44%
14:00 +24°C° 0 mm 3 m/s 743 mmHg 45%
15:00 +21°C° 0 mm 3 m/s 743 mmHg 52%
16:00 +19°C° 0 mm 3 m/s 743 mmHg 60%
17:00 +18°C° 0 mm 3 m/s 743 mmHg 67%
18:00 +16°C° 0 mm 3 m/s 743 mmHg 73%
19:00 +13°C° 0 mm 3 m/s 744 mmHg 79%
20:00 +12°C° 0 mm 2 m/s 744 mmHg 85%
21:00 +12°C° 0 mm 2 m/s 744 mmHg 87%
22:00 +10°C° 0 mm 2 m/s 744 mmHg 89%
23:00 +9°C° 0 mm 2 m/s 744 mmHg 91%

15 Abril, Quinta-feira

Tempo Temperatura Precipitação Vento Pressão Humidade
00:00 +9°C° 0 mm 2 m/s 744 mmHg 91%
01:00 +9°C° 0 mm 2 m/s 743 mmHg 91%
02:00 +9°C° 0 mm 2 m/s 743 mmHg 91%
03:00 +9°C° 0 mm 2 m/s 743 mmHg 90%
04:00 +9°C° 0 mm 2 m/s 743 mmHg 88%
05:00 +9°C° 0 mm 2 m/s 743 mmHg 87%
06:00 +10°C° 0 mm 2 m/s 744 mmHg 78%
07:00 +13°C° 0 mm 2 m/s 744 mmHg 70%
08:00 +14°C° 0 mm 3 m/s 744 mmHg 61%
09:00 +17°C° 0 mm 3 m/s 743 mmHg 56%
10:00 +19°C° 0 mm 3 m/s 743 mmHg 50%
11:00 +21°C° 0 mm 4 m/s 743 mmHg 45%
12:00 +21°C° 0 mm 4 m/s 743 mmHg 45%
13:00 +21°C° 0 mm 4 m/s 743 mmHg 46%
14:00 +21°C° 0 mm 5 m/s 742 mmHg 46%
15:00 +20°C° 0 mm 5 m/s 743 mmHg 50%
16:00 +18°C° 0 mm 4 m/s 743 mmHg 55%
17:00 +15°C° 0 mm 4 m/s 743 mmHg 60%
18:00 +13°C° 0 mm 4 m/s 744 mmHg 66%
19:00 +11°C° 0 mm 4 m/s 744 mmHg 73%
20:00 +8°C° 0 mm 3 m/s 745 mmHg 79%
21:00 +8°C° 0 mm 3 m/s 745 mmHg 80%
22:00 +7°C° 0 mm 3 m/s 745 mmHg 82%
23:00 +5°C° 0 mm 3 m/s 745 mmHg 83%

16 Abril, Sexta-feira

Tempo Temperatura Precipitação Vento Pressão Humidade
00:00 +5°C° 0 mm 3 m/s 745 mmHg 84%
01:00 +5°C° 0 mm 3 m/s 745 mmHg 85%
02:00 +4°C° 0 mm 3 m/s 745 mmHg 87%
03:00 +4°C° 0 mm 3 m/s 746 mmHg 87%
04:00 +4°C° 0 mm 3 m/s 746 mmHg 88%
05:00 +4°C° 0 mm 3 m/s 746 mmHg 88%
06:00 +7°C° 0 mm 3 m/s 746 mmHg 76%
07:00 +10°C° 0 mm 4 m/s 746 mmHg 64%
08:00 +12°C° 0 mm 4 m/s 747 mmHg 52%
09:00 +13°C° 0 mm 4 m/s 747 mmHg 47%
10:00 +15°C° 0 mm 5 m/s 747 mmHg 41%
11:00 +16°C° 0 mm 5 m/s 747 mmHg 36%
12:00 +16°C° 0 mm 5 m/s 746 mmHg 36%
13:00 +16°C° 0 mm 5 m/s 746 mmHg 36%
14:00 +16°C° 0 mm 5 m/s 746 mmHg 37%
15:00 +15°C° 0 mm 5 m/s 747 mmHg 43%
16:00 +13°C° 0 mm 5 m/s 747 mmHg 50%
17:00 +12°C° 0 mm 5 m/s 747 mmHg 56%
18:00 +9°C° 0 mm 5 m/s 748 mmHg 61%
19:00 +8°C° 0 mm 5 m/s 748 mmHg 66%
20:00 +6°C° 0 mm 5 m/s 749 mmHg 71%
21:00 +6°C° 0 mm 4 m/s 748 mmHg 70%
22:00 +5°C° 0 mm 4 m/s 748 mmHg 70%
23:00 +5°C° 0 mm 4 m/s 748 mmHg 69%

17 Abril, Sábado

Tempo Temperatura Precipitação Vento Pressão Humidade
00:00 +4°C° 0 mm 4 m/s 748 mmHg 67%
01:00 +4°C° 0 mm 4 m/s 748 mmHg 66%
02:00 +4°C° 0 mm 3 m/s 748 mmHg 64%
03:00 +4°C° 0 mm 3 m/s 748 mmHg 65%
04:00 +3°C° 0 mm 3 m/s 748 mmHg 66%
05:00 +3°C° 0 mm 3 m/s 748 mmHg 66%
06:00 +5°C° 0 mm 4 m/s 748 mmHg 58%
07:00 +8°C° 0 mm 4 m/s 749 mmHg 50%
08:00 +11°C° 0 mm 4 m/s 749 mmHg 41%
09:00 +13°C° 0 mm 4 m/s 748 mmHg 37%
10:00 +16°C° 0 mm 3 m/s 748 mmHg 32%
11:00 +18°C° 0 mm 3 m/s 748 mmHg 27%
12:00 +19°C° 0 mm 3 m/s 748 mmHg 27%
13:00 +19°C° 0 mm 3 m/s 747 mmHg 28%
14:00 +20°C° 0 mm 3 m/s 747 mmHg 28%
15:00 +18°C° 0 mm 3 m/s 747 mmHg 36%
16:00 +17°C° 0 mm 3 m/s 748 mmHg 45%
17:00 +14°C° 0 mm 3 m/s 748 mmHg 53%
18:00 +12°C° 0 mm 3 m/s 748 mmHg 62%
19:00 +10°C° 0 mm 2 m/s 749 mmHg 70%
20:00 +8°C° 0 mm 2 m/s 749 mmHg 78%
21:00 +7°C° 0 mm 2 m/s 749 mmHg 81%
22:00 +6°C° 0 mm 2 m/s 749 mmHg 84%
23:00 +5°C° 0 mm 2 m/s 749 mmHg 87%
Mostrar mais